Lid_Strength_Index
10 12 13 13 13 14 14 14 15 18 18 15 16 13 13 14 14 14 14 13 13 12 12 11 11 10 9 9 8 8 7 7 7 7 6 6 5 4
12 13 14 14 14 14 15 15 15 15 17 16 15 14 14 14 14 15 14 14 13 12 12 12 11 10 9 9 8 8 7 7 7 7 6 5 4 3
14 15 15 15 16 16 16 16 16 16 16 17 15 14 15 15 15 15 14 14 14 12 12 11 11 10 9 9 9 8 8 8 7 7 5 4 3 3
15 16 16 16 16 16 16 17 16 16 16 17 16 16 16 14 14 15 15 14 14 13 11 11 10 10 10 9 9 8 8 8 8 6 5 4 3 3
15 16 17 17 17 17 17 17 16 18 17 16 16 16 15 15 15 15 14 13 13 12 11 11 10 10 10 9 8 8 8 8 8 6 5 4 3 3
16 16 17 17 17 17 17 17 17 17 17 17 16 16 16 15 15 16 15 14 14 13 11 11 11 11 9 8 8 8 8 8 7 6 5 4 4 4
17 17 17 16 16 16 17 17 17 17 16 16 17 16 16 16 16 15 15 14 13 12 12 13 13 13 11 9 9 8 7 7 6 5 5 5 5 5
18 18 17 16 15 15 15 15 16 15 15 16 16 16 16 15 15 15 15 15 16 12 14 14 13 13 12 11 8 8 7 6 6 5 5 5 6 6
18 17 17 16 16 16 15 15 14 13 13 15 16 15 15 14 14 14 14 14 14 13 14 16 13 13 11 11 8 7 6 6 6 6 6 6 6 6
17 17 16 17 17 17 16 15 14 14 14 14 14 14 14 13 12 13 13 13 13 13 13 16 13 14 12 11 8 7 7 7 7 7 7 7 7 7
16 16 15 16 15 14 15 16 16 15 13 12 11 11 10 10 10 12 14 15 15 14 11 13 14 14 13 13 11 8 7 8 8 8 7 8 7 7
16 16 15 15 13 12 15 16 17 16 15 15 14 13 12 12 10 11 12 14 13 13 12 13 14 13 16 13 12 11 11 10 9 8 8 8 7 9
17 16 15 13 13 12 12 14 14 13 13 13 14 13 13 13 13 12 11 11 12 12 10 12 14 13 13 14 14 12 13 12 12 11 9 8 8 8
16 15 14 13 11 11 11 11 11 12 12 12 12 12 12 12 12 11 11 11 10 11 10 10 13 13 14 16 17 15 14 13 12 12 11 10 9 9
13 13 12 12 11 11 10 10 11 11 11 12 12 11 12 13 13 13 12 12 12 12 11 11 12 13 14 16 18 17 16 15 13 12 12 12 12 12
12 12 12 12 11 11 11 11 12 11 11 11 12 13 13 14 14 13 14 14 15 15 12 11 13 14 16 16 17 18 17 18 14 13 12 13 12 11
12 12 12 13 13 12 12 12 11 12 13 13 13 14 14 14 13 13 14 16 17 17 17 15 13 14 15 16 19 18 18 17 14 13 14 14 13 12
13 13 13 13 13 13 13 13 13 14 14 15 15 15 15 15 15 15 16 18 18 18 18 17 17 18 19 18 15 16 17 16 14 13 13 14 15 12
14 13 13 13 12 13 14 14 15 16 17 17 16 17 16 16 17 18 18 18 20 20 19 18 19 20 23 23 19 13 15 15 14 14 13 14 15 13
13 14 13 14 14 15 16 17 17 18 18 18 18 18 19 19 20 20 20 22 22 22 22 21 19 18 20 21 21 17 12 14 13 14 14 14 13 10
16 16 16 17 18 18 18 19 18 18 18 19 20 22 22 22 23 22 21 21 22 24 24 21 17 16 17 18 21 19 15 11 11 14 14 14 16 15
18 18 19 19 19 19 20 20 20 22 22 22 21 22 22 22 23 24 24 23 24 22 21 18 17 18 19 19 20 19 17 16 13 11 10 11 14 17
20 20 21 21 21 21 21 21 21 20 21 22 22 22 24 25 24 22 23 24 24 24 23 22 20 19 20 19 19 19 19 18 17 16 15 11 10 10